Wind_Speed
10 10 10 11 11 11 11 11 11 11 11 11 11 11 10 10 10 10 10 9 8 8 8 8 8 8 7 7 7 7 6 6 5 5 5 5 5 5 6 7 7 7 8
9 10 10 10 10 10 10 10 10 10 10 10 10 10 10 9 9 10 9 9 9 8 8 9 8 8 8 8 7 7 7 6 6 5 6 6 7 7 8 8 8 9 9
7 8 9 9 10 9 9 9 9 10 10 10 10 11 11 11 10 10 10 10 9 9 9 9 9 9 8 8 8 8 7 7 6 6 6 7 8 9 9 9 10 10 10
6 8 9 9 9 9 9 9 9 9 9 9 9 10 10 10 10 10 10 10 9 9 9 9 9 9 9 9 9 9 8 8 8 8 8 9 10 10 10 10 11 11 12
6 7 9 10 9 9 8 9 9 9 9 9 9 9 10 10 10 10 11 10 11 10 10 10 10 10 10 10 10 10 9 9 9 9 10 10 11 11 11 12 12 13 13
5 8 9 9 9 9 9 9 9 9 9 9 9 9 9 10 11 11 11 11 11 11 11 11 11 11 11 11 12 11 10 10 11 11 11 12 12 13 13 13 13 14 15
6 8 9 9 9 9 9 9 9 9 10 10 10 10 10 11 11 12 13 13 12 12 12 12 12 12 12 12 12 12 12 13 13 13 13 14 14 14 14 14 15 15 16
5 7 8 9 8 8 9 10 10 10 10 11 11 12 11 12 12 13 14 14 14 13 13 13 13 13 13 14 13 13 14 14 15 15 15 15 16 16 17 17 17 18 18
6 7 9 9 9 10 10 11 12 12 11 11 12 13 13 14 14 14 15 15 15 15 14 15 15 15 15 15 15 15 15 16 16 17 16 17 17 18 18 19 19 20 19
7 8 9 10 10 11 12 12 13 13 13 13 14 15 16 16 16 16 16 17 17 16 16 17 17 17 17 16 17 17 17 17 17 18 18 18 18 19 20 20 21 21 21
8 9 10 11 12 12 13 13 14 14 15 15 16 16 17 17 18 18 18 19 18 18 18 19 18 18 18 18 18 19 19 19 19 20 20 20 20 21 22 23 23 23 23
10 11 12 12 13 14 14 14 14 15 15 16 17 17 18 19 19 19 20 20 20 20 21 21 21 20 20 20 20 20 20 21 21 21 22 22 22 23 24 24 25 24 24
12 12 13 14 15 15 16 16 16 16 16 17 18 18 19 20 20 20 21 21 22 22 23 22 22 21 21 21 21 21 22 22 22 23 23 24 25 25 25 25 25 25 26
14 14 15 15 16 17 18 17 18 18 18 19 20 20 20 21 22 22 22 22 23 23 24 23 22 22 22 22 23 23 24 24 24 25 25 26 26 26 25 25 26 26 26
14 15 16 18 19 19 19 19 19 19 20 21 21 22 23 24 24 24 24 24 24 24 24 24 24 24 24 24 25 25 25 25 25 25 26 26 26 26 26 26 26 26 26
16 17 18 20 21 21 21 21 21 20 21 21 23 23 24 25 25 25 25 25 25 25 24 24 25 25 25 26 26 27 27 26 26 26 27 27 27 27 27 27 26 26 26
19 20 20 20 21 22 22 21 21 22 22 23 23 24 24 25 26 26 25 26 26 25 24 25 26 26 26 27 27 27 27 26 27 27 27 28 28 28 28 28 28 28 28
20 21 21 21 22 23 23 23 23 23 24 24 24 24 24 25 25 25 26 26 26 25 25 26 26 27 27 28 28 28 28 28 28 28 28 28 28 28 29 29 28 28 28
21 22 21 22 24 24 24 23 24 25 25 25 25 26 26 25 25 25 26 26 26 27 27 27 27 28 28 29 29 29 29 28 28 28 28 28 28 28 29 29 29 29 29
22 23 24 24 24 24 25 25 25 26 26 26 26 27 27 27 27 27 27 27 28 28 28 29 30 30 30 30 30 30 30 29 29 28 28 28 28 28 28 29 29 29 29
24 24 25 25 25 25 26 26 27 27 27 27 27 28 28 28 29 29 29 29 30 31 31 31 31 31 31 31 31 31 30 29 29 29 28 28 28 28 29 29 29 29 28
24 25 26 27 27 27 27 27 28 28 28 28 28 29 29 30 30 30 30 31 32 32 32 33 33 32 32 32 31 31 30 30 29 29 29 29 28 28 29 28 28 28 28
27 28 28 29 28 28 28 29 29 29 29 29 29 30 30 31 31 32 32 33 33 33 33 34 33 32 32 32 31 30 30 30 30 30 29 29 29 29 28 28 27 27 27
29 30 30 30 30 30 30 30 30 31 31 31 31 31 31 32 32 33 33 34 34 34 33 33 32 32 31 31 30 30 30 30 30 30 29 29 28 28 28 27 27 27 27
30 30 30 30 31 32 32 32 32 32 32 32 32 33 33 33 34 34 34 34 33 33 32 32 32 31 31 31 31 31 31 30 30 29 28 28 27 27 27 27 26 26 26
30 30 31 31 31 32 33 32 32 32 32 33 34 34 35 34 34 34 34 33 32 31 31 31 32 31 31 31 31 30 30 29 29 28 27 27 27 27 26 26 26 26 26
Wind_Direction
37 36 35 35 35 35 36 37 37 36 39 39 37 36 35 33 31 31 30 27 23 22 19 17 15 12 8 8 7 2 357 352 341 334 325 323 323 319 317 312 311 308 306
36 34 34 33 31 31 34 36 35 35 34 34 34 31 29 25 22 21 17 14 12 10 11 7 4 0 358 356 357 353 348 345 342 337 332 325 314 310 309 308 304 305 305
26 28 28 27 25 26 26 27 26 25 25 25 25 25 22 18 16 14 11 8 5 2 357 356 353 351 348 345 343 343 337 334 331 327 324 323 317 315 309 303 302 302 302
17 22 21 19 16 15 15 14 13 12 14 15 14 13 13 10 7 3 1 356 353 350 348 345 344 340 336 334 335 333 332 333 330 326 322 319 314 310 311 308 304 304 303
9 13 16 16 9 4 4 4 3 1 2 5 5 3 1 359 358 355 354 352 348 345 344 341 339 334 330 328 327 324 321 323 325 323 320 318 315 311 307 307 304 303 304
354 358 2 4 1 356 354 354 353 351 350 352 352 351 349 348 348 346 345 345 343 341 339 338 335 332 326 323 321 317 313 313 315 316 314 311 312 312 308 307 305 304 305
344 346 352 356 357 352 347 345 345 342 340 342 342 340 340 339 338 336 334 333 332 333 331 331 328 324 320 319 318 317 313 311 310 309 309 307 306 305 306 304 302 301 301
341 341 344 347 348 343 338 337 336 334 331 331 331 331 332 331 330 328 325 324 324 322 325 326 323 319 314 312 311 311 312 308 306 305 306 304 301 300 302 302 300 299 298
332 335 335 337 335 330 328 328 326 325 323 322 320 321 322 321 321 321 319 318 317 318 320 319 315 312 310 309 307 307 307 308 308 306 303 303 300 297 299 298 298 299 298
315 322 323 325 325 323 322 322 320 319 318 318 317 316 315 318 318 317 314 314 312 312 314 313 311 309 308 308 307 305 303 304 306 307 304 300 299 297 298 298 298 297 295
303 307 315 320 319 319 318 319 318 317 315 314 313 313 313 314 313 313 314 313 312 310 310 309 308 308 307 307 307 306 304 303 303 304 302 300 300 299 298 297 297 297 294
296 305 309 312 314 315 316 315 314 313 312 309 308 308 309 311 311 311 311 310 307 306 306 308 309 308 307 305 305 304 303 302 300 300 300 300 301 299 298 297 297 296 294
296 305 308 310 311 310 309 309 308 307 305 304 304 305 306 307 308 308 307 307 305 303 305 306 307 306 306 305 304 303 302 301 299 297 298 299 300 300 298 297 298 297 295
295 302 305 306 308 308 306 307 304 303 302 302 303 303 304 304 305 304 304 304 303 302 302 301 302 303 303 304 302 301 301 301 300 298 298 299 299 299 297 298 298 297 295
297 300 303 305 305 306 306 305 303 302 302 302 302 301 302 302 302 301 301 301 301 301 301 300 300 300 300 300 300 299 301 302 300 299 298 299 301 300 299 299 299 298 296
296 299 303 304 305 305 306 304 304 303 303 303 303 302 302 303 302 300 299 298 298 298 298 299 299 298 298 299 299 300 300 301 300 299 298 298 299 301 300 300 299 299 298
296 301 303 304 304 305 305 304 304 305 305 305 303 302 302 303 303 302 300 299 298 297 297 298 298 298 298 299 299 299 299 299 300 298 297 297 298 299 300 300 300 299 300
296 299 300 301 303 302 301 302 303 304 304 304 303 302 301 301 301 301 301 300 298 297 297 297 297 297 298 299 299 299 299 299 298 298 298 298 298 298 299 299 300 301 301
298 299 298 300 301 300 300 300 301 302 303 303 302 302 300 300 300 300 300 300 299 298 298 297 297 297 297 298 298 298 298 297 297 297 298 298 298 298 298 298 300 301 301
297 298 300 300 300 300 299 299 300 301 301 302 302 301 300 299 299 299 299 299 299 298 298 298 298 297 297 297 297 297 296 296 296 296 296 297 299 300 299 299 300 300 301
295 297 300 301 301 301 301 301 301 301 300 300 300 300 299 298 298 298 298 297 297 297 297 297 297 297 298 298 297 296 296 295 296 296 296 296 298 299 300 300 300 301 301
296 297 299 300 301 301 301 301 302 301 299 299 299 299 298 298 298 298 297 297 297 296 297 297 296 296 297 298 295 295 295 294 294 294 294 295 296 298 298 298 299 300 301
296 297 299 301 300 300 301 300 300 299 299 299 299 298 298 297 297 297 297 297 296 295 295 297 297 296 295 295 294 293 293 293 293 293 293 294 296 297 297 297 297 299 301
295 297 298 299 299 300 300 300 299 299 299 299 298 298 297 297 297 296 296 296 295 295 295 296 297 296 295 295 294 292 291 292 292 293 293 294 295 295 295 295 297 298 299
294 296 297 298 298 298 299 299 299 298 298 298 297 297 297 296 296 296 296 296 295 294 295 294 296 296 296 295 294 292 293 292 291 292 293 294 294 295 296 295 297 298 298
294 295 296 297 297 297 298 298 299 298 298 297 297 297 297 297 296 295 294 295 295 295 295 295 296 296 295 295 294 294 294 292 289 289 289 292 293 294 294 295 295 296 298
Height
5911 5910 5908 5907 5906 5904 5902 5900 5899 5898 5896 5895 5893 5892 5890 5889 5887 5885 5884 5883 5881 5880 5878 5877 5875 5874 5873 5871 5870 5869 5868 5866 5865 5864 5863 5862 5861 5860 5859 5857 5856 5854 5853
5912 5910 5909 5907 5906 5905 5903 5902 5900 5899 5897 5895 5894 5892 5891 5889 5888 5886 5884 5883 5881 5880 5878 5877 5875 5874 5872 5871 5870 5868 5867 5866 5864 5863 5862 5860 5860 5858 5856 5855 5853 5852 5851
5913 5911 5909 5908 5906 5905 5904 5902 5901 5899 5898 5896 5894 5893 5891 5889 5888 5886 5884 5883 5881 5879 5878 5876 5875 5873 5872 5870 5869 5867 5866 5864 5863 5861 5860 5859 5857 5855 5854 5852 5851 5849 5848
5912 5911 5909 5907 5906 5905 5904 5902 5901 5899 5898 5896 5895 5893 5891 5890 5888 5886 5884 5882 5880 5879 5877 5875 5874 5872 5871 5869 5867 5866 5864 5863 5861 5859 5858 5857 5855 5854 5852 5851 5849 5847 5845
5911 5910 5908 5907 5906 5905 5903 5902 5900 5899 5897 5896 5894 5892 5891 5889 5888 5885 5883 5881 5880 5878 5876 5874 5872 5870 5869 5867 5865 5864 5862 5860 5859 5857 5856 5854 5853 5851 5850 5848 5846 5844 5842
5910 5909 5907 5906 5905 5904 5902 5901 5899 5898 5897 5895 5893 5891 5890 5888 5887 5885 5883 5881 5879 5876 5874 5872 5870 5869 5867 5865 5863 5861 5859 5858 5856 5855 5853 5851 5850 5848 5847 5845 5843 5841 5839
5909 5908 5906 5905 5904 5903 5901 5900 5898 5897 5895 5893 5892 5890 5889 5887 5885 5883 5881 5879 5877 5875 5873 5870 5868 5866 5864 5863 5861 5859 5857 5855 5853 5851 5850 5848 5847 5845 5843 5841 5839 5837 5836
5907 5906 5905 5904 5902 5901 5900 5898 5897 5895 5894 5892 5890 5888 5887 5885 5883 5881 5879 5877 5874 5872 5870 5868 5866 5864 5862 5860 5858 5856 5854 5852 5850 5848 5846 5844 5843 5841 5839 5837 5835 5833 5831
5906 5905 5904 5902 5901 5900 5898 5896 5895 5893 5891 5890 5888 5886 5884 5882 5880 5879 5876 5874 5872 5869 5867 5865 5863 5861 5859 5857 5855 5853 5851 5848 5846 5844 5842 5840 5838 5836 5834 5832 5830 5828 5826
5904 5903 5901 5900 5899 5897 5896 5894 5892 5891 5889 5887 5885 5884 5882 5880 5877 5875 5873 5871 5868 5866 5864 5862 5859 5858 5856 5853 5851 5849 5846 5844 5842 5840 5838 5835 5833 5831 5829 5827 5825 5823 5820
5901 5900 5899 5898 5896 5894 5893 5891 5889 5888 5886 5884 5882 5880 5878 5876 5874 5871 5869 5867 5864 5862 5860 5858 5856 5854 5852 5849 5847 5845 5842 5840 5837 5835 5833 5830 5828 5826 5823 5821 5818 5816 5813
5899 5898 5896 5895 5893 5891 5889 5888 5886 5884 5883 5881 5879 5877 5874 5872 5870 5867 5865 5863 5860 5858 5856 5853 5851 5849 5847 5844 5842 5840 5837 5835 5832 5830 5827 5825 5822 5820 5817 5815 5812 5809 5807
5896 5894 5893 5891 5889 5888 5886 5884 5883 5881 5879 5877 5874 5872 5870 5868 5865 5863 5861 5858 5856 5853 5851 5849 5846 5844 5841 5839 5837 5834 5832 5829 5827 5824 5822 5819 5816 5814 5811 5808 5805 5802 5800
5892 5891 5889 5887 5885 5884 5882 5880 5879 5877 5875 5872 5870 5867 5865 5862 5860 5858 5855 5853 5850 5848 5846 5843 5841 5838 5836 5833 5831 5828 5825 5823 5821 5818 5815 5813 5810 5807 5804 5801 5798 5795 5793
5888 5887 5885 5883 5881 5879 5877 5875 5874 5872 5869 5867 5865 5862 5859 5857 5854 5852 5849 5847 5844 5842 5839 5837 5834 5832 5829 5827 5824 5821 5819 5816 5814 5811 5808 5805 5803 5800 5797 5794 5791 5788 5785
5884 5883 5881 5879 5876 5874 5872 5870 5868 5866 5863 5861 5858 5856 5853 5850 5848 5845 5843 5840 5838 5835 5833 5831 5828 5825 5823 5820 5817 5815 5812 5809 5806 5804 5801 5798 5795 5792 5789 5786 5783 5780 5778
5880 5878 5876 5874 5872 5870 5867 5865 5862 5860 5858 5855 5853 5850 5847 5845 5842 5839 5836 5834 5831 5828 5826 5824 5821 5819 5816 5813 5810 5807 5805 5802 5799 5796 5793 5790 5788 5785 5782 5779 5776 5773 5770
5875 5873 5871 5869 5868 5865 5862 5860 5857 5855 5852 5849 5847 5844 5841 5839 5836 5833 5830 5827 5824 5822 5819 5817 5814 5812 5809 5806 5803 5800 5797 5794 5792 5789 5786 5783 5780 5777 5774 5771 5768 5765 5762
5869 5868 5866 5864 5862 5860 5857 5855 5852 5849 5846 5843 5840 5838 5835 5832 5830 5827 5824 5821 5818 5815 5812 5810 5807 5804 5802 5798 5795 5792 5789 5786 5783 5781 5778 5775 5772 5769 5766 5764 5761 5758 5755
5864 5862 5860 5858 5856 5853 5851 5848 5845 5842 5840 5837 5834 5831 5828 5826 5823 5820 5817 5814 5811 5808 5805 5802 5799 5796 5794 5790 5787 5784 5781 5779 5776 5773 5770 5767 5764 5762 5758 5756 5753 5750 5746
5858 5856 5854 5852 5850 5847 5844 5841 5838 5836 5833 5830 5827 5824 5821 5818 5816 5813 5809 5806 5804 5801 5797 5794 5791 5788 5785 5782 5779 5776 5773 5770 5767 5765 5762 5759 5756 5754 5751 5748 5745 5741 5738
5852 5850 5848 5846 5843 5840 5838 5835 5832 5829 5826 5822 5820 5817 5814 5811 5808 5804 5801 5798 5795 5792 5789 5786 5783 5780 5777 5774 5771 5767 5764 5761 5759 5756 5753 5751 5748 5745 5743 5740 5737 5734 5731
5845 5843 5841 5839 5836 5833 5830 5827 5825 5821 5818 5815 5812 5809 5806 5802 5799 5796 5793 5789 5786 5783 5780 5777 5773 5770 5768 5765 5761 5759 5756 5753 5750 5747 5745 5742 5739 5737 5734 5731 5729 5726 5723
5837 5835 5833 5831 5828 5826 5823 5820 5816 5813 5810 5807 5803 5800 5797 5794 5790 5786 5783 5780 5776 5773 5770 5768 5764 5762 5759 5755 5752 5749 5747 5744 5741 5738 5736 5733 5731 5728 5726 5723 5721 5718 5715
5830 5828 5826 5823 5820 5817 5814 5811 5808 5804 5801 5798 5795 5791 5788 5784 5781 5777 5773 5770 5766 5763 5761 5758 5755 5752 5749 5746 5743 5740 5738 5735 5732 5730 5727 5725 5722 5720 5718 5715 5713 5710 5707
5822 5820 5818 5815 5812 5809 5805 5802 5799 5795 5792 5789 5785 5782 5778 5774 5771 5767 5764 5760 5757 5754 5751 5748 5746 5743 5740 5736 5734 5731 5728 5725 5723 5721 5719 5716 5714 5712 5710 5707 5705 5702 5700